Time,TemperatureF,DewpointF,PressureIn,WindDirection,WindDirectionDegrees,WindSpeedMPH,WindSpeedGustMPH,Humidity,HourlyPrecipIn,Conditions,Clouds,dailyrainin,SoftwareType,DateUTC
2013-10-09 00:14:00,46.0,42.0,30.23,ESE,103,0.0,0.0,86,0.00,,,0.00,,2013-10-09 04:14:00,
2013-10-09 00:44:00,45.0,42.0,30.23,ESE,103,0.0,0.0,89,0.00,,,0.00,,2013-10-09 04:44:00,
2013-10-09 00:54:00,45.0,42.0,30.23,ESE,103,0.0,0.0,90,0.00,,,0.00,,2013-10-09 04:54:00,
2013-10-09 01:13:00,45.0,42.0,30.22,ESE,103,0.0,1.0,89,0.00,,,0.00,,2013-10-09 05:13:00,
2013-10-09 01:22:00,44.0,42.0,30.22,ESE,103,0.0,1.0,91,0.00,,,0.00,,2013-10-09 05:22:00,
2013-10-09 01:42:00,44.0,41.0,30.22,ESE,103,0.0,0.0,90,0.00,,,0.00,,2013-10-09 05:42:00,
2013-10-09 01:52:00,45.0,42.0,30.22,ESE,103,0.0,1.0,88,0.00,,,0.00,,2013-10-09 05:52:00,
2013-10-09 02:12:00,44.0,41.0,30.22,ESE,103,0.0,1.0,88,0.00,,,0.00,,2013-10-09 06:12:00,
2013-10-09 02:22:00,44.0,41.0,30.22,ESE,103,0.0,0.0,90,0.00,,,0.00,,2013-10-09 06:22:00,
2013-10-09 02:42:00,44.0,41.0,30.23,ESE,103,0.0,0.0,90,0.00,,,0.00,,2013-10-09 06:42:00,
2013-10-09 02:52:00,43.0,40.0,30.23,ESE,103,0.0,0.0,90,0.00,,,0.00,,2013-10-09 06:52:00,
2013-10-09 03:12:00,43.0,41.0,30.23,ESE,103,0.0,0.0,91,0.00,,,0.00,,2013-10-09 07:12:00,
2013-10-09 03:22:00,43.0,41.0,30.23,ESE,103,0.0,0.0,92,0.00,,,0.00,,2013-10-09 07:22:00,
2013-10-09 03:42:00,43.0,41.0,30.23,ESE,103,0.0,0.0,92,0.00,,,0.00,,2013-10-09 07:42:00,
2013-10-09 03:52:00,43.0,41.0,30.22,ESE,103,0.0,0.0,92,0.00,,,0.00,,2013-10-09 07:52:00,
2013-10-09 04:12:00,43.0,41.0,30.22,ESE,103,0.0,0.0,93,0.00,,,0.00,,2013-10-09 08:12:00,
2013-10-09 04:23:00,42.0,40.0,30.22,ESE,103,0.0,0.0,93,0.00,,,0.00,,2013-10-09 08:23:00,
2013-10-09 04:42:00,42.0,40.0,30.23,ESE,103,0.0,0.0,93,0.00,,,0.00,,2013-10-09 08:42:00,
2013-10-09 04:53:00,42.0,40.0,30.23,ESE,103,0.0,0.0,93,0.00,,,0.00,,2013-10-09 08:53:00,
2013-10-09 05:11:00,42.0,40.0,30.23,ESE,103,0.0,0.0,94,0.00,,,0.00,,2013-10-09 09:11:00,
2013-10-09 05:22:00,42.0,41.0,30.23,ESE,103,0.0,1.0,95,0.00,,,0.00,,2013-10-09 09:22:00,
2013-10-09 05:43:00,41.0,40.0,30.23,ESE,103,0.0,0.0,95,0.00,,,0.00,,2013-10-09 09:43:00,
2013-10-09 05:53:00,42.0,41.0,30.24,ESE,103,0.0,2.0,96,0.00,,,0.00,,2013-10-09 09:53:00,
2013-10-09 06:13:00,42.0,41.0,30.23,ESE,103,0.0,0.0,95,0.00,,,0.00,,2013-10-09 10:13:00,
2013-10-09 06:23:00,42.0,41.0,30.23,ESE,103,0.0,1.0,96,0.00,,,0.00,,2013-10-09 10:23:00,
2013-10-09 06:43:00,41.0,40.0,30.24,ESE,103,0.0,0.0,95,0.00,,,0.00,,2013-10-09 10:43:00,
2013-10-09 06:53:00,41.0,40.0,30.24,ESE,103,0.0,0.0,95,0.00,,,0.00,,2013-10-09 10:53:00,
2013-10-09 07:12:00,42.0,41.0,30.24,ESE,103,0.0,2.0,96,0.00,,,0.00,,2013-10-09 11:12:00,
2013-10-09 07:22:00,42.0,41.0,30.24,ESE,103,0.0,0.0,95,0.00,,,0.00,,2013-10-09 11:22:00,
2013-10-09 07:42:00,41.0,40.0,30.24,ESE,103,0.0,0.0,95,0.00,,,0.00,,2013-10-09 11:42:00,
2013-10-09 07:52:00,41.0,40.0,30.24,ESE,103,0.0,0.0,96,0.00,,,0.00,,2013-10-09 11:52:00,
2013-10-09 08:12:00,41.0,40.0,30.25,ESE,103,0.0,1.0,96,0.00,,,0.00,,2013-10-09 12:12:00,
2013-10-09 08:22:00,41.0,40.0,30.25,ESE,103,0.0,1.0,96,0.00,,,0.00,,2013-10-09 12:22:00,
2013-10-09 08:42:00,42.0,41.0,30.25,ESE,103,0.0,1.0,97,0.00,,,0.00,,2013-10-09 12:42:00,
2013-10-09 08:52:00,43.0,42.0,30.26,East,100,0.0,2.0,96,0.00,,,0.00,,2013-10-09 12:52:00,
2013-10-09 09:12:00,44.0,43.0,30.26,ENE,63,0.0,2.0,96,0.00,,,0.00,,2013-10-09 13:12:00,
2013-10-09 09:22:00,46.0,45.0,30.27,ENE,62,1.0,3.0,96,0.00,,,0.00,,2013-10-09 13:22:00,
2013-10-09 09:42:00,47.0,46.0,30.27,ENE,62,0.0,2.0,96,0.00,,,0.00,,2013-10-09 13:42:00,
2013-10-09 09:52:00,49.0,47.0,30.27,NE,40,1.0,4.0,94,0.00,,,0.00,,2013-10-09 13:52:00,
2013-10-09 10:11:00,51.0,49.0,30.28,NE,37,1.0,4.0,92,0.00,,,0.00,,2013-10-09 14:11:00,
2013-10-09 10:22:00,53.0,49.0,30.28,ENE,78,3.0,6.0,87,0.00,,,0.00,,2013-10-09 14:22:00,
2013-10-09 10:42:00,54.0,49.0,30.28,ESE,113,2.0,5.0,84,0.00,,,0.00,,2013-10-09 14:42:00,
2013-10-09 10:52:00,56.0,50.0,30.27,ENE,71,2.0,7.0,80,0.00,,,0.00,,2013-10-09 14:52:00,
2013-10-09 11:11:00,57.0,50.0,30.27,ESE,120,2.0,7.0,78,0.00,,,0.00,,2013-10-09 15:11:00,
2013-10-09 11:22:00,58.0,50.0,30.27,ESE,119,1.0,7.0,75,0.00,,,0.00,,2013-10-09 15:22:00,
2013-10-09 11:43:00,59.0,49.0,30.27,ESE,118,3.0,7.0,70,0.00,,,0.00,,2013-10-09 15:43:00,
2013-10-09 11:53:00,60.0,50.0,30.27,SE,144,3.0,7.0,69,0.00,,,0.00,,2013-10-09 15:53:00,
2013-10-09 12:13:00,62.0,52.0,30.27,SE,134,2.0,8.0,69,0.00,,,0.00,,2013-10-09 16:13:00,
2013-10-09 12:24:00,63.0,50.0,30.26,SSE,148,2.0,8.0,62,0.00,,,0.00,,2013-10-09 16:24:00,
2013-10-09 12:42:00,64.0,49.0,30.26,East,82,2.0,8.0,59,0.00,,,0.00,,2013-10-09 16:42:00,
2013-10-09 12:52:00,65.0,46.0,30.26,ENE,76,5.0,10.0,51,0.00,,,0.00,,2013-10-09 16:52:00,
2013-10-09 13:12:00,66.0,47.0,30.25,SE,124,7.0,9.0,50,0.00,,,0.00,,2013-10-09 17:12:00,
2013-10-09 13:22:00,66.0,48.0,30.24,ESE,117,4.0,11.0,52,0.00,,,0.00,,2013-10-09 17:22:00,
2013-10-09 13:42:00,68.0,48.0,30.24,ESE,123,7.0,11.0,48,0.00,,,0.00,,2013-10-09 17:42:00,
2013-10-09 13:52:00,68.0,49.0,30.24,SE,138,3.0,8.0,50,0.00,,,0.00,,2013-10-09 17:52:00,
2013-10-09 14:12:00,68.0,48.0,30.23,SE,125,5.0,12.0,49,0.00,,,0.00,,2013-10-09 18:12:00,
2013-10-09 14:22:00,69.0,47.0,30.22,East,91,4.0,13.0,45,0.00,,,0.00,,2013-10-09 18:22:00,
2013-10-09 14:42:00,70.0,48.0,30.22,ENE,64,4.0,11.0,45,0.00,,,0.00,,2013-10-09 18:42:00,
2013-10-09 14:52:00,70.0,46.0,30.21,ESE,107,4.0,10.0,43,0.00,,,0.00,,2013-10-09 18:52:00,
2013-10-09 15:11:00,71.0,47.0,30.20,East,82,4.0,12.0,42,0.00,,,0.00,,2013-10-09 19:11:00,
2013-10-09 15:22:00,71.0,46.0,30.20,ESE,115,6.0,14.0,41,0.00,,,0.00,,2013-10-09 19:22:00,
2013-10-09 15:42:00,71.0,44.0,30.19,East,95,5.0,12.0,38,0.00,,,0.00,,2013-10-09 19:42:00,
2013-10-09 15:52:00,71.0,45.0,30.19,ESE,107,7.0,13.0,39,0.00,,,0.00,,2013-10-09 19:52:00,
2013-10-09 16:11:00,72.0,46.0,30.19,ESE,113,4.0,13.0,40,0.00,,,0.00,,2013-10-09 20:11:00,
2013-10-09 16:22:00,72.0,44.0,30.18,ESE,123,5.0,11.0,37,0.00,,,0.00,,2013-10-09 20:22:00,
2013-10-09 16:43:00,72.0,44.0,30.18,ESE,121,7.0,11.0,37,0.00,,,0.00,,2013-10-09 20:43:00,
2013-10-09 16:52:00,72.0,44.0,30.18,ESE,121,6.0,12.0,36,0.00,,,0.00,,2013-10-09 20:52:00,
2013-10-09 17:12:00,72.0,44.0,30.17,ENE,67,6.0,9.0,37,0.00,,,0.00,,2013-10-09 21:12:00,
2013-10-09 17:23:00,71.0,43.0,30.17,East,92,4.0,11.0,37,0.00,,,0.00,,2013-10-09 21:23:00,
2013-10-09 17:44:00,72.0,44.0,30.17,SE,129,4.0,9.0,36,0.00,,,0.00,,2013-10-09 21:44:00,
2013-10-09 17:53:00,71.0,44.0,30.17,SE,130,4.0,7.0,38,0.00,,,0.00,,2013-10-09 21:53:00,
2013-10-09 18:13:00,71.0,43.0,30.17,ESE,102,5.0,9.0,36,0.00,,,0.00,,2013-10-09 22:13:00,
2013-10-09 18:24:00,70.0,43.0,30.17,ESE,104,4.0,8.0,37,0.00,,,0.00,,2013-10-09 22:24:00,
2013-10-09 18:43:00,70.0,44.0,30.17,East,99,4.0,7.0,39,0.00,,,0.00,,2013-10-09 22:43:00,
2013-10-09 18:53:00,69.0,44.0,30.17,ESE,105,1.0,5.0,40,0.00,,,0.00,,2013-10-09 22:53:00,
2013-10-09 19:12:00,68.0,44.0,30.17,East,92,1.0,3.0,42,0.00,,,0.00,,2013-10-09 23:12:00,
2013-10-09 19:22:00,66.0,43.0,30.17,East,92,0.0,1.0,44,0.00,,,0.00,,2013-10-09 23:22:00,
2013-10-09 19:43:00,64.0,44.0,30.17,East,91,0.0,1.0,48,0.00,,,0.00,,2013-10-09 23:43:00,
2013-10-09 19:53:00,62.0,44.0,30.17,East,91,0.0,1.0,51,0.00,,,0.00,,2013-10-09 23:53:00,
2013-10-09 20:12:00,60.0,45.0,30.17,East,91,0.0,1.0,57,0.00,,,0.00,,2013-10-10 00:12:00,
2013-10-09 20:42:00,58.0,45.0,30.17,East,91,0.0,2.0,62,0.00,,,0.00,,2013-10-10 00:42:00,
2013-10-09 20:52:00,56.0,44.0,30.17,East,92,0.0,2.0,65,0.00,,,0.00,,2013-10-10 00:52:00,
2013-10-09 21:11:00,56.0,44.0,30.18,East,83,1.0,7.0,65,0.00,,,0.00,,2013-10-10 01:11:00,
2013-10-09 21:22:00,57.0,45.0,30.18,East,82,1.0,4.0,65,0.00,,,0.00,,2013-10-10 01:22:00,
2013-10-09 21:42:00,56.0,46.0,30.18,East,97,1.0,3.0,69,0.00,,,0.00,,2013-10-10 01:42:00,
2013-10-09 21:52:00,56.0,46.0,30.18,East,84,1.0,5.0,70,0.00,,,0.00,,2013-10-10 01:52:00,
2013-10-09 22:12:00,55.0,46.0,30.18,East,92,1.0,3.0,72,0.00,,,0.00,,2013-10-10 02:12:00,
2013-10-09 22:22:00,55.0,47.0,30.18,East,84,1.0,3.0,73,0.00,,,0.00,,2013-10-10 02:22:00,
2013-10-09 23:12:00,52.0,46.0,30.18,East,84,0.0,1.0,79,0.00,,,0.00,,2013-10-10 03:12:00,
2013-10-09 23:22:00,51.0,45.0,30.18,East,84,0.0,0.0,80,0.00,,,0.00,,2013-10-10 03:22:00,
2013-10-09 23:44:00,50.0,44.0,30.18,East,84,0.0,1.0,81,0.00,,,0.00,,2013-10-10 03:44:00,
2013-10-09 23:55:00,49.0,44.0,30.18,East,84,0.0,0.0,84,0.00,,,0.00,,2013-10-10 03:55:00,